Tracking 22124 objects as of 25-Jan-2021
HD Live streaming from Space Station
objects crossing your sky now

STARLINK-76

Track STARLINK-76 now!
10-day predictions
STARLINK-76 is classified as:


NORAD ID: 44287
Int'l Code: 2019-029BE
Perigee: 433.8 km
Apogee: 437.8 km
Inclination: 53.0 °
Period: 93.1 minutes
Semi major axis: 6806 km
RCS: Unknown
Launch date: May 24, 2019
Source: United States (US)
Launch site: AIR FORCE EASTERN TEST RANGE (AFETR)
aabbcc
Your satellite tracking list
Your tracking list is empty




NASA's NSSDC Master Catalog

Two Line Element Set (TLE):
1 44287U 19029BE  21024.94218258  .00006012  00000-0  13023-3 0  9995
2 44287  52.9956 231.1714 0002932 110.7808 249.3512 15.45918660 92599
Source of the keplerian elements: AFSPC